GFSFLT2_850_dewp_066.txt.gz
Dewpoint
11 11 9 9 7 12 8 2 -9 4 9 9 7 2 -2 -1 -1 -2 -4 -7 -9 -9 3 3 3 4 4 5 3 2 -2 -11
11 12 10 8 7 9 8 5 2 6 9 9 8 2 -0 -0 -0 -1 -4 -7 -9 -11 -1 2 3 3 3 3 2 1 -0 -6
11 11 10 8 7 8 7 8 6 7 8 9 8 2 0 1 1 1 -1 -6 -8 -8 -6 1 2 2 1 0 -0 -1 -3 -6
11 9 9 8 8 9 8 6 7 6 7 7 7 1 1 2 2 3 3 -0 -6 -7 -7 -4 -0 -0 -1 -2 -3 -4 -6 -6
10 9 9 8 9 9 8 6 4 3 5 7 6 1 1 2 3 3 4 3 2 -1 -3 -3 -3 -4 -3 -4 -5 -6 -5 -5
11 9 9 9 9 8 6 4 7 7 6 6 4 1 2 3 3 3 3 4 3 3 2 0 -2 -3 -5 -5 -5 -5 -4 -3
10 10 10 9 8 7 4 9 7 7 6 4 2 1 2 1 2 3 3 4 4 4 5 4 1 -2 -5 -5 -5 -5 -4 -1
11 10 10 9 7 6 4 7 5 5 5 2 0 1 -0 1 0 1 3 4 4 5 5 5 3 0 -3 -3 -3 -3 -3 -2
10 10 9 9 8 7 3 4 5 5 4 3 1 1 1 -0 0 1 3 4 4 5 5 5 5 5 1 -2 -3 -2 -3 -2
9 9 9 7 6 6 7 6 5 5 4 4 5 4 3 1 1 4 4 4 5 6 5 6 5 5 3 1 -1 -2 -2 -2
9 9 9 5 5 8 8 8 6 4 3 2 1 1 3 2 5 5 4 4 6 7 6 6 6 5 4 4 4 4 -2 -1
9 9 8 6 4 4 6 8 5 3 2 1 1 2 2 3 3 2 1 6 7 7 6 6 6 6 5 4 4 3 -0 -2
8 8 7 6 4 5 5 4 4 3 1 1 5 4 2 1 -1 1 4 4 5 6 7 6 6 6 5 4 4 2 0 -2
7 7 6 5 3 4 5 4 3 2 2 4 6 6 6 2 0 2 0 2 7 7 7 7 7 6 6 4 3 2 0 -1
7 6 6 5 4 4 5 4 4 2 3 4 4 3 4 5 4 4 2 5 6 6 7 7 8 8 6 5 3 3 2 1
6 6 6 5 5 6 6 4 3 3 1 3 2 0 2 3 4 3 4 5 5 5 7 8 8 8 7 6 6 5 4 3
5 6 6 6 5 3 3 3 2 1 2 2 -1 0 4 4 5 4 3 5 6 6 7 8 8 8 8 8 7 7 5 4
3 4 4 4 3 3 4 4 4 3 1 0 -1 -2 2 3 4 5 5 6 6 6 7 8 8 8 8 8 7 7 6 5
2 2 2 2 4 5 4 4 4 4 3 2 2 4 5 5 6 6 7 8 8 8 8 9 8 8 8 8 7 6 5 4
2 1 1 1 3 4 5 6 7 7 6 6 6 6 6 5 6 7 8 8 8 8 9 8 8 9 8 8 6 6 5 5

GFSFLT2_850_dewp_069.txt.gz
Dewpoint
12 12 10 9 10 7 12 11 10 10 5 3 3 -1 -3 -3 -3 -4 -3 4 4 4 4 5 5 4 4 2 -0 -5 -11 -13
12 11 8 7 8 8 11 11 10 11 4 3 2 -1 -1 -2 -4 -7 -7 2 4 3 3 3 4 4 3 2 -1 -4 -10 -11
11 11 10 10 9 6 9 11 11 11 8 4 1 -0 -1 -3 -6 -8 -10 -7 3 3 2 1 -1 2 1 -0 -2 -6 -6 -11
11 11 11 10 8 7 8 7 8 8 8 6 0 0 -1 -3 -5 -8 -10 -10 -1 2 2 2 1 -0 -1 -3 -5 -5 -5 -9
10 10 10 9 9 9 9 7 7 8 7 4 1 1 -1 -0 -3 -6 -8 -8 -6 -1 0 -1 -0 -2 -3 -4 -5 -5 -4 -5
9 9 9 9 9 9 8 8 8 8 7 4 1 1 2 3 2 0 -2 -3 -4 -5 -4 -3 -4 -4 -4 -5 -5 -4 -3 -2
9 9 9 9 8 8 6 5 7 7 6 5 1 2 3 3 3 3 3 3 3 2 -1 -2 -3 -4 -5 -5 -4 -4 -2 -1
10 10 10 9 9 8 7 6 6 7 8 5 2 3 3 3 3 3 4 4 4 4 4 4 -1 -3 -3 -3 -4 -4 -3 -1
9 10 10 9 9 7 6 5 3 6 7 6 1 2 2 3 3 3 3 3 4 4 5 5 2 1 -2 -3 -3 -2 -2 -2
10 10 10 9 8 5 9 9 9 9 7 3 2 1 1 1 2 3 0 2 4 4 5 5 5 5 4 1 -2 -2 -2 -1
9 9 9 9 8 9 9 9 8 5 5 3 2 1 1 0 1 1 -1 3 5 5 5 5 6 5 4 3 3 4 3 -2
9 9 9 9 8 6 7 7 7 6 4 3 2 2 2 2 3 3 4 4 4 5 6 6 6 6 5 4 3 3 3 2
8 9 9 8 7 7 8 7 7 6 4 4 4 4 3 3 4 5 5 4 1 3 6 7 6 6 5 4 4 3 2 2
8 9 9 6 7 8 7 5 6 4 3 5 6 3 2 2 5 6 3 2 1 3 6 7 7 6 6 5 5 3 3 2
7 8 8 6 5 8 7 7 6 4 2 2 2 1 2 3 5 4 4 2 3 4 6 7 7 7 7 6 5 4 4 4
7 8 7 6 5 4 4 6 6 4 3 1 1 2 3 5 6 6 5 4 5 3 5 7 8 8 8 8 7 5 6 4
6 7 7 6 5 4 5 5 4 4 3 2 2 2 4 3 3 3 3 4 6 6 6 6 6 7 8 9 8 7 6 5
5 6 6 6 5 4 4 4 5 4 4 4 2 2 3 2 -0 0 2 5 6 6 7 7 7 8 8 8 8 8 7 7
3 4 5 5 6 5 4 5 6 4 4 3 2 1 2 0 -2 -1 1 3 5 7 7 8 8 8 8 8 8 8 7 7
-0 1 4 4 5 4 4 3 2 1 1 1 1 1 -0 -2 -2 0 3 5 6 8 8 8 8 9 9 9 8 8 7 6

GFSFLT2_850_dewp_072.txt.gz
Dewpoint
12 11 11 11 9 9 7 11 11 10 1 3 3 0 0 3 -0 1 2 3 4 5 5 4 4 1 -2 -6 -11 -12 -12 -12
12 11 10 10 9 9 7 7 11 10 4 6 2 -1 -2 -2 -0 2 3 2 3 4 5 4 4 2 -0 -3 -9 -10 -11 -11
12 12 10 10 8 7 7 8 11 9 8 5 1 -2 -2 -1 1 3 3 3 3 4 4 4 3 1 -2 -5 -6 -9 -10 -10
12 11 11 10 10 7 10 11 10 8 7 5 0 -2 -1 -3 0 3 3 3 2 2 2 2 1 -1 -4 -5 -5 -7 -9 -8
11 10 11 11 9 8 10 10 10 10 7 4 -1 -0 -3 -6 -7 -4 2 2 2 2 2 1 -1 -3 -5 -5 -4 -5 -7 -7
9 9 10 10 8 7 8 10 10 9 7 3 -0 -1 -5 -7 -10 -10 -5 0 0 -2 -1 -1 -2 -3 -5 -5 -4 -2 -2 -3
9 9 9 8 8 8 9 10 9 7 7 2 -0 -3 -4 -7 -7 -5 -6 -4 -4 -3 -5 -4 -4 -5 -5 -4 -4 -3 -1 -1
9 10 9 9 9 9 9 9 8 7 7 2 1 2 -0 -4 -4 -4 -3 -4 -4 -3 -4 -3 -4 -4 -4 -3 -3 -3 -1 -1
9 9 10 9 9 8 8 8 8 8 6 2 1 2 4 4 3 2 3 4 4 3 4 1 -3 -3 -3 -3 -3 -2 -2 -1
9 9 9 9 9 7 8 8 9 8 7 3 2 4 2 4 3 4 4 5 5 4 5 4 2 2 -2 -2 -3 -2 -2 -2
9 9 9 9 9 7 6 7 8 8 6 4 4 2 4 4 4 4 4 4 4 4 5 5 5 5 4 2 -1 -1 0 -1
9 9 9 9 9 8 8 6 6 8 6 5 3 3 4 4 3 3 3 4 4 5 5 5 6 6 5 4 3 2 2 1
9 9 9 9 8 7 8 8 8 7 8 4 4 4 3 2 2 2 4 4 4 5 6 6 6 6 6 6 5 4 3 3
8 8 9 9 8 8 9 9 9 8 7 6 3 3 3 3 2 1 4 4 5 6 6 6 7 7 6 6 5 5 5 5
8 8 9 9 8 8 7 7 8 6 5 4 4 4 4 3 3 2 4 5 5 5 5 6 6 7 7 6 6 6 6 5
7 8 8 9 7 7 7 7 7 6 5 5 4 5 4 4 3 3 1 4 6 6 4 3 5 7 8 8 7 7 6 6
6 7 8 8 6 7 8 7 5 5 5 4 4 5 5 5 3 1 0 3 6 7 7 6 6 6 7 8 8 8 7 7
4 6 7 7 6 5 8 6 5 5 4 3 3 2 2 2 1 1 1 2 1 5 5 5 6 7 7 7 8 8 8 8
3 4 6 7 6 5 4 5 6 6 4 3 3 2 2 2 1 2 2 1 0 1 3 5 6 8 8 8 8 8 8 8
1 2 4 5 5 4 4 4 4 5 5 4 3 4 4 2 2 2 2 1 -0 0 2 5 7 8 8 8 8 8 8 8

GFSFLT2_850_dewp_075.txt.gz
Dewpoint
9 10 10 9 7 8 8 10 11 10 8 6 0 0 4 2 4 1 3 4 4 4 2 -5 -6 -11 -11 -12 -12 -10 -7 5
10 10 10 11 9 9 9 9 10 12 10 8 4 3 2 2 1 2 4 4 5 4 2 0 -2 -6 -10 -11 -10 -11 -9 0
12 12 11 11 11 11 11 9 7 9 11 9 4 2 1 5 -1 3 4 5 6 5 4 2 -1 -4 -8 -10 -10 -10 -10 2
12 12 12 11 11 10 9 8 9 10 11 8 3 1 2 -0 2 4 4 5 6 5 4 2 -1 -5 -5 -7 -9 -8 -9 -3
12 12 11 11 10 10 10 7 9 11 10 8 3 1 1 1 2 4 4 5 6 5 4 1 -3 -5 -5 -5 -7 -7 -7 -2
11 10 9 10 11 10 9 10 10 10 8 6 1 -0 -0 0 3 3 3 2 2 1 0 -1 -3 -5 -4 -4 -5 -6 -5 -5
9 9 7 10 10 9 11 10 10 9 8 4 0 -1 -2 -2 -3 3 2 2 1 -0 0 -2 -3 -5 -4 -4 -2 -2 -1 -1
9 9 9 9 8 10 10 10 10 7 4 3 -0 -1 -3 -6 -2 1 2 1 0 -2 -2 -3 -4 -4 -4 -4 -3 -1 -1 -1
8 8 10 9 9 9 10 10 9 7 4 4 1 -3 -3 -7 -7 -3 -3 -1 -3 -4 -4 -4 -4 -4 -4 -4 -3 -2 -1 -1
9 9 10 9 9 9 9 9 9 7 5 1 -2 -0 -6 -6 -5 -1 -0 -3 -2 -1 -3 -3 -3 -3 -3 -3 -3 -2 -2 -1
9 9 9 9 9 9 9 9 7 6 5 -1 1 -3 -5 2 2 3 3 4 5 3 3 3 0 -0 -2 -2 -3 -3 -2 -2
9 9 9 9 9 8 9 9 8 8 3 -0 -1 3 4 4 4 4 5 5 5 5 5 5 5 5 4 3 1 0 1 2
9 9 9 9 9 8 9 8 9 6 6 1 5 4 5 5 4 5 5 4 5 5 5 5 5 5 5 5 4 3 3 3
8 9 9 9 9 8 7 8 8 7 7 4 4 4 5 4 5 4 2 3 5 6 6 6 6 6 6 6 6 6 5 5
8 9 8 9 9 8 8 7 7 8 8 5 4 4 4 4 3 2 2 4 5 6 6 6 6 7 7 7 6 6 6 6
7 8 9 9 9 8 7 8 8 7 7 5 5 5 5 4 3 3 4 3 4 4 4 5 6 7 7 7 8 7 7 7
6 8 9 9 8 8 8 8 8 8 7 6 5 5 5 4 4 4 5 4 4 3 5 6 6 7 7 6 7 8 8 8
5 7 8 8 8 8 8 7 8 8 7 6 5 4 5 4 4 4 4 4 3 4 3 4 5 4 4 7 8 8 8 8
4 6 7 7 8 7 7 7 7 7 6 6 5 5 4 4 6 5 4 3 3 3 2 3 4 5 5 6 7 8 8 8
1 3 5 7 7 6 6 8 7 6 5 6 5 4 4 5 6 5 4 4 3 2 2 1 1 3 3 5 7 8 8 9

GFSFLT2_850_dewp_081.txt.gz
Dewpoint
10 13 13 11 11 9 8 10 8 12 11 10 11 10 8 8 10 11 9 3 -4 -5 -4 -6 -4 -6 -3 4 7 7 6 7
12 12 12 11 10 9 8 9 10 12 10 11 8 11 8 10 11 9 8 3 1 -3 -5 -7 -10 -8 -5 2 7 7 6 6
10 12 12 12 11 8 10 10 11 12 11 11 8 9 10 10 10 8 9 5 -1 -12 -11 -12 -10 -8 -5 3 5 5 5 6
11 11 12 12 11 10 10 10 10 11 11 10 10 10 9 8 9 9 10 7 -5 -10 -11 -10 -7 -6 -0 5 5 5 5 6
11 12 11 12 12 11 11 10 10 11 11 11 11 11 9 8 10 10 8 5 -4 -6 -8 -5 4 4 5 6 6 6 5 7
11 11 11 11 11 11 11 11 11 11 11 11 10 9 9 9 8 8 7 3 0 -2 -3 5 5 4 6 6 6 5 6 7
11 11 11 11 10 10 11 11 11 10 10 10 10 10 8 8 6 7 6 7 6 3 6 6 6 6 6 6 6 6 6 7
11 11 11 11 10 10 10 10 10 10 10 10 10 9 9 6 4 8 8 8 7 6 7 6 6 6 6 6 6 6 6 7
11 10 11 10 9 10 10 9 9 9 10 10 10 9 8 6 7 8 9 8 8 7 6 5 4 5 5 6 6 7 6 7
10 11 10 9 10 9 10 10 10 10 9 10 8 7 8 5 6 7 8 9 8 7 5 4 4 4 5 6 6 6 7 7
10 10 9 9 9 9 10 9 9 9 9 7 7 7 5 3 4 6 6 7 7 7 5 4 4 4 4 5 5 5 6 6
10 9 9 9 9 9 9 9 9 8 7 6 6 5 4 3 4 4 2 2 3 1 3 4 4 4 3 4 4 5 5 5
10 9 8 9 9 9 9 8 8 7 6 5 4 4 3 5 4 3 1 3 3 -0 0 2 3 3 1 3 4 4 4 5
10 9 9 9 9 9 9 9 8 4 4 4 4 4 3 2 2 0 2 3 2 0 3 3 5 4 3 4 4 4 4 4
9 8 9 9 9 9 9 9 7 5 4 4 2 1 1 2 2 1 2 2 4 6 5 6 7 6 6 7 7 7 7 5
8 8 9 9 9 9 9 8 7 5 4 3 3 4 4 4 3 2 1 6 6 5 5 5 7 6 6 6 7 8 7 6
8 7 10 9 9 9 9 8 6 5 5 4 4 3 3 4 1 2 3 5 4 4 4 5 6 7 7 6 6 7 7 7
8 8 9 9 9 9 8 8 7 7 7 4 0 -3 -1 -0 2 5 5 4 3 3 3 5 6 6 5 6 6 7 6 6
8 9 9 9 9 9 9 9 8 6 6 2 -1 -4 -1 2 5 5 5 5 4 2 3 5 4 5 5 6 6 6 7 7
8 9 9 9 9 9 9 9 8 8 6 3 -0 -1 2 5 5 5 4 3 3 2 4 5 4 5 5 6 5 6 7 8

GFSFLT2_850_dewp_087.txt.gz
Dewpoint
3 5 10 11 12 10 11 11 11 10 9 7 6 10 10 7 10 11 12 11 4 8 8 7 6 9 9 8 8 7 7 6
11 11 12 13 13 11 10 10 10 9 8 7 7 9 11 8 8 7 11 11 4 4 4 0 8 8 8 7 7 7 6 5
9 13 12 12 12 11 10 10 10 8 8 9 9 8 12 11 8 9 8 10 3 -1 1 -2 8 7 7 6 7 7 7 2
6 13 12 12 11 11 10 9 7 7 9 10 11 10 10 9 9 9 11 9 -4 -1 0 -0 7 7 6 6 6 6 5 5
6 10 12 12 11 11 10 8 8 9 9 9 10 11 11 9 8 9 11 5 -2 -3 -0 -1 4 2 6 7 7 6 6 6
7 9 12 11 11 11 10 9 8 10 11 9 7 10 10 9 8 9 9 2 -1 -1 -4 -5 -3 6 6 7 7 6 5 5
7 9 11 11 11 11 11 10 10 10 10 8 11 10 9 9 9 8 7 3 -5 -4 -8 -7 3 6 6 7 7 6 5 4
9 7 10 11 11 11 11 11 11 11 11 11 11 10 10 10 9 8 8 4 -7 -9 -9 -2 6 6 5 7 7 6 6 4
10 10 8 10 11 11 10 10 10 11 11 12 11 10 10 10 9 9 9 4 -8 -1 -1 1 6 6 6 7 7 6 6 4
10 10 10 9 9 10 10 10 9 10 11 11 11 11 11 10 9 9 8 -1 -2 6 5 1 5 6 6 7 6 6 6 5
9 10 9 8 9 9 9 8 9 10 10 11 11 11 11 11 10 9 6 -2 6 7 6 6 6 6 6 6 7 7 6 6
9 10 9 8 9 9 9 8 9 8 9 10 10 11 11 10 10 7 6 1 7 6 6 6 6 6 6 6 7 7 6 6
9 9 9 9 9 9 9 9 9 9 8 9 9 9 10 10 9 9 6 4 7 6 5 5 5 5 6 6 6 6 6 7
9 9 8 9 10 9 9 8 9 8 9 10 10 10 10 10 8 6 5 8 7 6 4 4 5 5 5 5 6 6 6 6
9 9 7 9 9 10 9 8 8 8 8 9 9 9 9 8 7 9 8 8 7 5 4 4 4 4 4 3 5 5 5 6
9 8 6 8 9 9 9 8 9 8 9 9 9 9 8 8 7 8 7 8 7 5 3 1 1 1 3 4 3 2 4 4
9 8 7 7 8 9 8 9 8 8 8 8 8 7 7 8 7 7 5 5 5 2 1 1 2 1 4 3 3 5 5 5
9 8 7 9 9 9 9 9 8 8 8 7 8 7 7 7 6 5 5 4 3 1 2 2 0 2 3 2 3 5 6 5
9 8 7 9 9 9 9 8 8 8 8 7 7 7 7 5 4 4 3 2 2 3 3 1 1 3 6 4 4 6 6 6
9 8 5 9 9 8 8 8 8 8 7 7 6 6 4 4 5 5 3 3 3 2 3 3 3 6 6 7 6 6 5 4